Temp
51 44 41 45 48 50 48 45 44 49 55 50 48 50 54 56 56 54 56 57 56 57 62 60 60 58 56 55 55 54 53 52 52 49 47 46 45 45 45 47 50 50 50 50
46 41 51 53 52 50 49 45 44 50 54 50 48 47 52 55 55 59 61 56 55 56 56 57 55 55 55 54 54 53 54 52 51 50 46 46 45 44 45 45 47 48 49 49
43 49 55 52 50 48 48 44 44 46 50 48 44 44 48 55 54 58 59 57 56 56 55 56 56 54 53 52 52 53 53 52 50 49 48 46 44 43 42 43 43 45 48 47
47 56 54 52 49 50 42 51 50 48 43 36 45 33 44 52 55 56 57 53 53 52 53 53 54 49 52 50 52 53 52 52 49 50 48 47 47 44 41 41 42 43 46 45
46 49 48 48 51 52 49 52 49 46 41 36 37 35 41 46 50 55 53 50 50 50 51 50 49 51 50 50 49 51 51 51 50 49 48 45 41 41 41 41 41 41 42 44
48 52 51 51 51 51 51 47 45 41 37 29 39 38 37 44 50 50 47 47 48 49 51 50 50 50 48 47 47 47 48 48 48 47 45 44 42 42 40 39 39 39 39 40
45 48 52 54 46 47 46 40 30 29 26 29 39 35 44 50 45 47 48 45 45 46 46 47 48 47 47 46 46 46 47 45 46 45 44 43 43 42 41 40 40 39 38 38
36 37 46 51 50 43 40 41 31 27 26 30 37 32 36 35 35 35 36 39 44 42 42 42 44 45 46 46 46 47 46 45 45 45 44 44 44 41 42 41 40 40 40 39
38 39 47 48 51 51 41 36 45 37 33 28 33 39 40 33 30 30 31 34 38 38 38 37 38 39 42 45 46 47 47 46 45 45 44 44 44 42 41 41 41 41 40 43
43 37 49 47 48 45 43 46 36 34 28 25 29 29 26 22 22 26 27 31 33 33 32 31 31 33 34 36 37 40 48 49 48 48 48 46 44 44 43 42 41 41 42 44
38 37 39 42 40 41 39 39 39 38 34 29 26 23 24 20 22 23 24 25 28 28 28 29 29 31 32 33 33 34 36 37 38 43 45 45 46 46 46 45 43 40 41 42
37 35 30 37 45 47 45 45 45 37 32 31 37 23 22 22 22 22 22 24 25 26 26 27 27 28 29 29 30 31 32 34 35 36 37 37 39 41 41 41 42 42 39 41
36 33 27 32 38 39 36 33 32 34 36 30 30 19 22 22 21 21 20 20 22 23 23 24 24 24 25 26 27 28 29 30 32 34 34 34 34 34 34 34 36 37 37 37
38 32 29 24 27 32 29 24 24 28 26 20 18 11 12 16 16 18 18 19 19 19 20 20 20 20 21 22 23 25 26 28 29 30 30 30 31 32 33 34 33 34 34 33
36 24 30 31 32 32 19 18 18 17 15 15 11 7 9 13 15 16 17 18 17 16 17 18 18 18 19 20 21 23 24 25 26 26 26 26 27 28 29 31 32 32 32 33
32 15 26 22 31 32 14 15 15 13 11 13 14 9 13 15 17 15 15 15 14 15 16 16 18 18 18 18 19 21 22 23 24 23 22 24 25 25 25 26 27 27 28 29
26 21 11 7 27 23 15 9 11 10 9 10 6 8 12 11 13 13 14 14 14 14 15 15 15 16 18 18 19 18 20 22 23 22 22 22 23 23 23 24 25 24 25 26
27 27 23 9 20 8 8 14 12 8 8 9 9 9 10 10 13 15 14 13 14 15 15 15 16 16 17 17 15 18 19 20 20 21 21 21 21 21 22 22 23 23 23 23
32 26 10 7 7 7 7 9 7 4 1 8 6 8 9 9 8 10 12 13 13 15 15 13 15 13 15 15 16 15 16 16 17 19 19 20 20 19 20 20 20 21 21 21
29 24 16 6 -1 -3 1 9 13 11 -2 2 5 2 4 4 -1 2 10 12 12 12 13 14 16 14 13 14 15 16 15 16 16 19 19 20 22 22 21 22 22 23 22 24
13 7 -1 3 -6 -5 3 7 9 -3 -3 1 3 -4 -1 -1 -0 7 9 10 10 11 11 14 11 10 12 14 15 15 17 16 20 23 23 22 22 22 22 22 22 22 22 23
-2 -6 -2 -3 -7 -5 6 2 -0 -1 -5 -5 -6 -4 -1 3 5 7 9 10 11 11 11 12 12 12 13 14 14 15 15 19 20 20 20 20 20 22 23 22 22 22 20 19
5 3 2 -0 -1 1 2 2 -1 0 -1 -2 -1 1 -2 3 5 8 8 9 10 11 13 14 12 13 15 15 15 14 16 18 17 17 17 18 19 21 22 20 20 20 19 17
4 5 1 -0 2 -1 -1 -3 -3 -2 -3 1 2 1 2 3 7 8 9 10 10 11 12 13 12 10 11 13 16 12 15 16 15 14 15 16 16 17 18 20 20 19 17 16
1 3 -7 -7 -4 -3 -4 -1 -6 -1 -2 -3 1 2 5 8 7 7 8 9 10 11 12 12 11 12 12 11 11 11 15 13 12 12 12 12 15 14 14 16 16 16 17 18
-3 -7 -11 -8 -8 -7 -4 -4 -2 -4 -4 1 5 7 8 8 7 8 7 9 9 9 11 10 11 10 10 10 10 11 12 12 10 9 11 10 12 9 11 10 11 19 22 24
MSLP
1010.08 1010.49 1009.91 1009.73 1009.77 1009.46 1009.43 1009.43 1009.19 1008.23 1007.84 1008.14 1008.17 1007.49 1006.73 1006.32 1006.23 1005.92 1005.51 1005.46 1005.51 1005.48 1005.24 1005.85 1006.53 1007.38 1008.47 1009.39 1010.28 1011.13 1012.06 1012.99 1013.73 1014.48 1015.16 1015.77 1016.14 1016.53 1016.91 1017.07 1017.17 1017.41 1017.64 1017.88
1010.34 1009.75 1009.06 1009.23 1009.52 1009.71 1009.58 1009.34 1008.72 1007.87 1007.47 1007.96 1007.73 1007.22 1006.49 1005.92 1005.42 1004.89 1004.33 1004.46 1004.65 1004.81 1005.19 1005.63 1006.31 1007.09 1007.85 1008.76 1009.75 1010.77 1011.57 1012.51 1013.31 1013.98 1014.60 1015.12 1015.82 1016.49 1016.82 1017.14 1017.35 1017.48 1017.68 1017.88
1009.71 1008.65 1007.97 1008.82 1008.92 1009.25 1008.78 1008.67 1008.38 1008.28 1007.87 1007.79 1007.91 1006.98 1006.33 1004.84 1004.49 1003.82 1003.47 1003.44 1003.75 1003.93 1004.53 1005.15 1005.98 1006.73 1007.71 1008.68 1009.51 1010.39 1011.26 1012.17 1013.05 1013.78 1014.53 1015.27 1016.07 1016.73 1017.26 1017.36 1017.47 1017.66 1017.77 1017.95
1009.03 1007.97 1007.89 1008.01 1008.19 1008.29 1007.98 1007.66 1007.81 1008.10 1008.71 1008.81 1008.09 1007.16 1006.24 1005.23 1004.31 1003.84 1003.18 1003.54 1003.69 1003.91 1004.46 1005.19 1006.02 1007.04 1007.81 1008.81 1009.63 1010.40 1011.09 1011.92 1012.87 1013.57 1014.40 1015.08 1015.58 1016.37 1016.77 1017.08 1017.34 1017.63 1017.77 1018.03
1008.16 1007.41 1007.46 1007.48 1007.00 1007.41 1007.09 1007.25 1007.73 1008.20 1008.77 1009.00 1008.74 1008.92 1006.12 1005.72 1005.12 1004.05 1003.69 1004.05 1004.60 1005.03 1005.46 1006.09 1006.88 1007.52 1008.21 1008.96 1009.69 1010.43 1011.10 1011.86 1012.58 1013.32 1013.98 1014.89 1015.65 1016.20 1016.55 1017.07 1017.48 1017.77 1017.98 1018.08
1008.15 1007.45 1007.24 1006.75 1006.73 1006.84 1007.14 1007.67 1008.22 1008.76 1009.59 1009.57 1008.98 1009.47 1006.80 1006.60 1005.86 1005.55 1005.45 1005.46 1005.98 1006.47 1006.91 1007.29 1007.69 1008.29 1008.99 1009.62 1010.15 1010.72 1011.30 1012.01 1012.60 1013.34 1014.01 1014.74 1015.41 1016.01 1016.60 1017.13 1017.58 1017.81 1018.02 1018.25
1007.98 1007.03 1006.42 1006.33 1007.02 1007.34 1007.51 1008.26 1009.40 1009.93 1010.56 1009.32 1008.56 1009.89 1008.63 1008.39 1009.99 1009.93 1008.77 1008.76 1008.97 1008.98 1009.25 1009.58 1009.85 1010.00 1010.24 1010.71 1011.03 1011.58 1012.00 1012.60 1013.06 1013.61 1014.20 1014.71 1015.26 1015.77 1016.17 1016.59 1017.05 1017.54 1017.89 1018.08
1008.63 1007.04 1006.25 1005.88 1005.99 1006.43 1007.25 1007.79 1008.63 1009.02 1009.64 1009.54 1009.37 1010.18 1011.97 1013.23 1013.17 1013.03 1013.27 1012.75 1011.82 1011.91 1012.11 1012.12 1012.22 1011.98 1011.65 1011.79 1011.87 1012.19 1012.61 1012.94 1013.33 1013.77 1014.26 1014.67 1015.07 1015.60 1016.00 1016.28 1016.69 1017.04 1017.35 1017.57
1008.91 1007.34 1006.16 1005.80 1005.84 1006.32 1007.18 1007.73 1007.49 1008.53 1009.15 1009.96 1009.94 1010.09 1011.56 1013.37 1014.96 1015.67 1015.58 1015.26 1014.90 1014.57 1014.42 1014.58 1014.48 1014.48 1014.22 1013.56 1012.88 1012.88 1013.06 1013.32 1013.55 1013.89 1014.20 1014.55 1014.90 1015.35 1015.74 1016.12 1016.45 1016.85 1017.19 1017.52
1010.20 1008.20 1006.67 1006.26 1006.17 1006.50 1006.82 1007.30 1007.95 1008.61 1009.33 1010.19 1010.53 1012.66 1015.59 1018.00 1019.48 1019.72 1018.95 1018.38 1018.06 1017.56 1017.15 1017.23 1017.17 1017.00 1016.75 1016.37 1015.83 1014.99 1014.20 1013.75 1013.63 1013.76 1014.01 1014.41 1014.82 1015.09 1015.47 1015.86 1016.30 1016.66 1016.97 1017.24
1012.60 1010.85 1008.12 1007.49 1006.78 1006.88 1007.69 1007.91 1008.09 1008.34 1008.81 1009.85 1012.42 1016.45 1020.34 1022.19 1022.98 1022.78 1022.50 1021.97 1021.17 1020.37 1019.89 1019.82 1019.41 1018.98 1018.78 1018.29 1017.77 1017.42 1016.71 1016.18 1015.46 1015.12 1014.76 1014.76 1015.00 1015.06 1015.53 1015.88 1016.20 1016.53 1016.92 1017.20
1014.74 1013.22 1010.78 1008.51 1007.27 1007.00 1007.47 1008.15 1008.75 1009.45 1009.87 1010.94 1013.23 1018.80 1022.92 1024.32 1025.09 1025.06 1024.80 1024.37 1023.90 1023.30 1022.55 1022.08 1021.52 1020.81 1020.28 1020.01 1019.60 1019.32 1018.77 1018.19 1017.71 1017.17 1016.49 1016.36 1016.33 1016.17 1016.22 1016.28 1016.51 1016.70 1017.05 1017.39
1015.82 1014.55 1012.79 1009.81 1008.37 1009.25 1010.52 1012.40 1013.34 1012.83 1012.11 1013.14 1016.19 1021.28 1024.64 1025.57 1025.94 1026.37 1026.19 1025.99 1025.68 1025.46 1024.86 1024.19 1023.44 1022.89 1022.42 1021.84 1021.41 1021.06 1020.58 1020.02 1019.17 1018.62 1018.11 1017.84 1017.79 1017.88 1017.90 1017.72 1017.64 1017.52 1017.72 1017.91
1016.49 1015.71 1015.37 1014.24 1014.01 1014.78 1014.89 1015.99 1016.56 1016.46 1016.65 1017.58 1019.44 1022.91 1026.07 1027.18 1027.46 1027.35 1027.28 1027.31 1027.21 1026.93 1026.28 1025.83 1025.06 1024.73 1024.50 1023.96 1023.39 1022.73 1022.16 1021.47 1020.71 1020.18 1019.77 1019.43 1019.24 1019.10 1019.22 1019.01 1018.93 1018.80 1018.73 1018.89
1017.00 1016.63 1016.40 1015.92 1016.02 1016.90 1018.83 1019.89 1020.00 1020.45 1021.52 1021.68 1023.74 1025.97 1028.30 1029.06 1028.83 1028.45 1028.54 1028.27 1028.09 1027.71 1027.31 1026.75 1026.25 1025.93 1025.64 1025.10 1024.58 1023.98 1023.33 1022.75 1022.11 1021.76 1021.37 1021.14 1020.92 1020.53 1020.13 1019.88 1019.69 1019.61 1019.61 1019.58
1017.82 1017.70 1017.70 1016.99 1017.48 1018.34 1021.59 1022.90 1023.92 1024.63 1025.31 1025.44 1026.16 1027.34 1029.26 1030.06 1029.38 1028.75 1028.79 1029.10 1029.13 1028.82 1028.13 1028.04 1027.36 1026.77 1026.44 1026.01 1025.61 1024.97 1024.54 1023.94 1023.43 1022.97 1022.74 1022.37 1022.11 1021.88 1021.52 1021.15 1020.97 1020.59 1020.59 1020.35
1019.06 1018.66 1019.09 1018.82 1019.08 1020.68 1023.29 1026.27 1027.30 1028.42 1029.10 1029.00 1029.66 1030.84 1030.91 1030.53 1029.29 1029.80 1029.55 1029.74 1029.80 1029.52 1029.06 1028.62 1028.13 1027.75 1027.19 1026.86 1026.53 1025.89 1025.26 1024.81 1024.17 1024.17 1023.61 1023.20 1022.92 1022.72 1022.62 1022.31 1021.98 1021.71 1021.56 1021.41
1018.89 1019.28 1020.16 1020.69 1021.16 1023.77 1028.00 1029.33 1030.10 1030.70 1031.53 1031.78 1032.09 1032.17 1032.11 1031.84 1031.63 1031.21 1030.59 1030.74 1030.53 1029.99 1029.76 1029.19 1028.88 1028.48 1027.98 1027.54 1027.28 1026.69 1026.07 1025.48 1024.65 1024.34 1024.16 1024.16 1023.43 1023.33 1023.34 1022.96 1022.80 1022.35 1022.39 1022.08
1019.42 1020.28 1021.88 1023.40 1025.65 1028.51 1029.82 1030.84 1031.73 1032.25 1033.33 1033.66 1033.89 1033.82 1033.54 1032.91 1031.81 1031.40 1031.10 1031.64 1031.40 1030.73 1029.96 1029.58 1029.16 1028.59 1028.10 1027.71 1027.37 1026.84 1026.26 1025.64 1025.02 1024.67 1024.35 1024.01 1023.88 1024.03 1023.92 1023.33 1023.29 1023.03 1022.92 1022.64
1021.56 1022.23 1023.70 1025.84 1028.45 1030.54 1031.93 1032.45 1032.90 1033.56 1034.76 1035.29 1035.41 1035.50 1035.07 1034.38 1033.62 1032.56 1032.08 1031.99 1031.51 1030.93 1030.21 1029.51 1028.81 1028.51 1028.22 1027.80 1027.40 1026.83 1026.12 1025.41 1025.01 1024.59 1024.29 1024.16 1023.91 1023.88 1023.49 1023.05 1023.08 1022.94 1022.64 1022.39
1025.17 1026.32 1028.06 1029.38 1031.29 1033.02 1033.68 1034.01 1033.92 1035.27 1036.97 1036.40 1036.45 1036.57 1036.31 1035.96 1035.16 1033.45 1032.59 1031.65 1031.07 1030.51 1029.89 1029.26 1028.94 1028.76 1028.33 1027.74 1027.19 1026.62 1025.99 1025.56 1025.16 1024.65 1024.35 1024.25 1023.94 1023.82 1023.09 1022.67 1022.72 1022.69 1022.49 1022.08
1029.94 1031.39 1032.10 1032.52 1033.59 1034.99 1035.20 1035.32 1035.99 1037.28 1036.94 1037.12 1036.96 1036.77 1036.30 1035.52 1034.38 1033.46 1032.52 1031.67 1031.01 1030.44 1029.73 1029.37 1029.00 1028.55 1028.02 1027.38 1026.95 1026.48 1025.93 1025.36 1025.04 1024.83 1024.41 1024.17 1023.87 1023.63 1023.00 1022.52 1022.27 1022.28 1022.21 1022.21
1032.71 1034.18 1034.89 1035.55 1035.88 1036.22 1036.29 1036.79 1037.23 1037.46 1037.92 1037.64 1037.39 1036.52 1035.92 1035.00 1033.98 1033.08 1032.17 1031.44 1030.82 1030.32 1029.72 1029.29 1028.82 1028.23 1027.75 1027.30 1026.91 1026.45 1026.01 1025.54 1025.12 1024.72 1024.30 1023.95 1023.66 1023.43 1022.96 1022.49 1022.18 1021.97 1021.77 1021.67
1035.03 1035.77 1036.61 1037.16 1037.16 1037.39 1037.29 1037.45 1037.50 1037.67 1037.73 1037.28 1036.79 1036.31 1035.44 1034.54 1033.55 1032.67 1031.99 1031.32 1030.73 1030.11 1029.53 1028.96 1028.48 1028.07 1027.63 1027.09 1026.68 1026.49 1025.93 1025.52 1025.10 1024.72 1024.29 1023.88 1023.54 1023.09 1022.62 1022.34 1022.11 1021.79 1021.61 1021.48
1037.64 1037.92 1038.80 1038.82 1038.55 1038.03 1037.85 1037.87 1037.78 1037.64 1037.30 1036.99 1036.09 1035.59 1034.75 1033.95 1033.18 1032.54 1031.82 1031.16 1030.53 1029.93 1029.26 1028.86 1028.51 1027.98 1027.48 1027.18 1026.81 1026.38 1025.91 1025.57 1025.14 1024.71 1024.23 1023.73 1023.32 1022.99 1022.60 1022.29 1022.07 1021.72 1021.37 1021.10
1039.61 1040.64 1040.67 1040.43 1040.07 1040.13 1039.15 1038.07 1037.84 1037.65 1037.11 1036.51 1035.72 1034.75 1034.18 1033.67 1032.94 1032.27 1031.63 1031.01 1030.39 1029.76 1029.24 1028.86 1028.45 1027.97 1027.57 1027.12 1026.63 1026.14 1025.80 1025.40 1024.99 1024.50 1023.99 1023.63 1023.16 1022.83 1022.57 1022.24 1021.86 1021.57 1020.93 1020.30
Wind_Speed
4 4 11 12 12 7 4 4 8 6 6 7 10 16 15 9 8 11 15 14 12 14 13 13 15 14 15 15 16 16 15 12 9 5 5 4 5 3 3 4 7 6 5 6
0 10 11 8 7 9 10 11 10 8 4 8 8 12 11 9 9 14 19 13 14 9 9 10 11 14 17 18 17 16 15 13 9 7 3 4 4 2 3 3 5 6 6 6
8 8 4 8 10 9 11 7 6 9 4 3 5 10 8 10 5 11 14 11 9 13 11 12 15 15 13 16 17 16 15 14 10 8 5 4 4 4 3 2 3 3 5 4
9 15 16 13 6 8 8 7 9 6 3 5 6 8 5 9 14 10 11 7 6 4 5 6 10 9 13 10 12 14 14 13 10 11 7 8 8 7 4 4 3 4 5 5
10 3 5 8 15 9 10 6 5 2 4 2 1 4 7 3 7 14 7 6 6 4 6 7 7 8 7 11 11 11 12 12 11 10 9 7 5 3 3 3 6 4 4 5
10 3 4 7 1 3 4 3 3 4 3 4 9 8 2 5 7 3 5 6 7 8 8 7 6 8 6 6 7 8 11 9 9 9 8 9 9 7 5 5 6 5 4 4
5 11 8 5 3 1 3 6 3 3 1 10 4 5 10 8 27 21 9 10 11 11 12 11 8 5 5 6 6 6 7 6 7 8 7 8 8 8 9 9 7 8 5 4
4 11 10 6 14 9 7 10 8 7 6 5 2 7 4 11 21 24 22 20 10 15 15 17 18 12 5 5 6 6 6 6 7 7 7 6 7 4 5 8 6 6 6 5
4 7 0 3 5 8 3 6 7 3 2 1 6 6 7 27 29 30 28 20 15 16 18 20 22 21 21 10 4 5 6 5 6 7 6 6 5 6 6 6 6 5 5 5
8 12 11 3 3 1 6 3 2 2 5 6 6 2 6 23 24 23 27 24 19 19 20 19 18 19 18 18 19 20 11 1 4 7 7 6 6 5 5 6 6 7 7 8
12 5 5 3 5 9 1 4 5 4 6 8 6 3 9 13 15 18 20 22 22 21 19 18 16 16 16 16 18 18 18 16 14 11 7 5 3 4 4 5 5 6 6 7
8 6 8 11 4 6 5 6 6 10 10 5 11 5 8 11 12 15 16 18 18 19 18 17 17 18 18 18 17 16 16 15 14 12 11 10 9 8 6 5 3 4 6 5
7 4 8 8 3 6 8 9 9 9 4 11 10 5 8 10 14 14 16 16 16 17 17 16 17 18 17 17 16 15 15 14 13 11 11 11 11 10 9 9 8 8 7 7
6 5 7 8 10 9 7 8 9 3 4 7 6 9 11 11 11 14 16 15 12 14 15 14 14 14 14 14 15 15 14 14 13 12 12 11 10 7 6 6 7 7 7 6
2 5 8 11 12 10 8 8 12 5 6 2 4 6 6 10 6 7 8 12 14 15 15 14 13 12 12 13 13 13 13 14 12 12 12 12 11 11 10 9 5 3 1 1
5 6 9 16 13 6 14 13 9 10 8 6 5 4 12 9 5 9 9 11 11 11 12 12 12 11 11 11 11 11 11 11 9 10 10 10 11 11 10 10 9 9 8 7
6 3 2 7 3 8 4 12 9 9 11 5 6 5 12 13 13 7 10 10 10 10 11 11 11 11 9 9 10 10 9 9 8 8 8 8 8 9 9 9 8 9 8 8
9 5 3 6 5 3 4 7 10 12 8 8 6 9 9 11 10 3 10 12 11 11 11 10 8 9 9 6 6 7 7 7 6 5 6 7 8 8 8 8 7 7 6 6
6 0 2 2 4 3 2 4 4 3 2 7 7 10 11 14 10 4 11 9 9 9 10 7 7 5 7 7 7 5 6 5 5 6 4 5 6 7 7 7 6 6 6 5
7 7 5 5 5 5 4 7 6 4 3 4 3 7 10 10 6 5 13 13 11 7 7 9 9 6 6 7 6 6 6 6 7 5 4 4 6 6 6 5 5 4 4 6
7 7 4 4 3 5 4 11 4 4 5 4 1 3 4 3 6 14 15 13 8 9 9 9 6 6 7 7 6 7 6 6 6 7 6 7 6 7 7 5 4 4 5 6
3 3 3 3 4 3 4 4 4 6 4 3 4 4 5 9 11 11 13 12 12 12 7 7 7 7 7 7 5 7 7 6 5 7 7 8 7 7 8 7 6 6 5 6
2 0 1 3 3 4 3 6 4 4 3 5 4 7 6 11 12 13 12 12 11 11 10 10 8 10 9 6 7 6 7 8 7 6 8 7 7 9 9 9 8 6 5 4
3 3 0 3 3 5 5 3 2 2 3 6 5 8 7 10 12 12 13 12 12 11 12 10 10 8 9 8 9 6 10 10 9 10 9 8 8 9 6 5 6 6 5 5
2 4 4 5 4 7 4 3 4 8 6 4 7 7 9 11 13 13 12 12 12 11 11 9 9 11 10 8 10 8 11 9 8 9 8 7 7 7 7 6 6 6 7 8
2 3 2 5 6 5 8 6 8 6 6 7 11 12 7 10 13 13 11 11 9 12 9 11 12 12 13 13 12 12 11 9 9 8 7 6 7 5 6 5 6 14 20 22
Wind_Direction
214 148 214 196 204 222 267 263 257 258 227 166 227 243 257 256 263 253 252 238 230 219 215 194 186 172 160 161 161 166 160 168 156 155 149 145 152 148 120 151 144 148 139 139
192 238 233 204 216 232 257 259 264 282 246 181 258 259 258 251 234 241 256 246 226 229 193 189 170 166 170 165 166 165 168 165 162 163 141 133 135 130 133 137 133 145 141 145
195 223 183 197 238 252 247 221 248 250 287 249 308 277 248 265 259 264 254 248 222 216 199 183 174 174 159 164 167 166 166 165 161 149 128 97 77 72 90 149 130 156 147 142
238 241 239 253 228 197 256 214 239 257 247 246 144 284 247 261 264 274 270 212 196 149 132 159 158 155 163 157 156 160 162 163 156 155 155 163 173 166 183 159 145 148 152 148
245 244 201 228 240 180 243 200 213 222 245 358 244 323 274 223 282 264 282 197 168 102 99 125 120 136 136 145 153 156 157 162 159 163 160 161 153 142 136 133 148 150 156 158
248 260 229 214 86 180 137 101 38 48 84 272 209 174 284 225 248 338 0 83 96 73 60 95 109 121 122 121 131 146 153 163 154 156 151 162 163 162 149 153 166 169 164 170
297 242 226 163 190 27 162 89 304 313 44 240 227 169 259 331 6 9 2 40 37 42 36 36 43 86 109 133 121 119 135 143 149 153 159 165 174 177 176 175 174 170 169 176
237 296 170 199 201 186 192 165 174 209 201 251 114 223 106 14 21 14 14 6 25 36 35 34 25 15 49 108 119 122 140 140 154 158 169 178 190 177 188 179 173 180 182 169
260 261 27 151 159 146 195 184 208 310 194 4 217 264 188 14 12 8 0 7 28 35 37 33 24 21 20 11 91 128 136 146 162 170 172 182 185 175 177 175 168 173 164 172
312 284 248 195 107 11 155 196 128 208 205 216 256 157 324 5 358 2 11 22 27 29 29 26 27 23 21 19 17 18 1 170 171 180 182 179 168 164 166 160 172 172 175 173
5 312 287 100 195 179 144 248 234 194 175 220 239 174 24 9 4 4 15 15 16 23 24 20 19 23 24 24 21 17 16 17 19 13 23 48 38 119 152 176 171 164 155 160
10 296 279 235 249 204 203 254 247 236 241 248 240 162 34 21 20 14 20 18 21 22 22 20 20 21 21 21 21 18 14 12 12 13 29 34 28 26 38 49 76 136 146 146
351 340 310 296 302 25 34 39 1 319 288 242 253 141 37 23 19 22 20 19 20 24 23 21 20 19 15 14 14 14 13 10 11 16 26 31 33 31 30 34 40 54 66 72
179 219 271 291 309 303 305 22 358 316 268 342 21 129 22 21 27 13 16 18 16 14 19 20 24 21 16 13 11 8 9 8 11 19 23 28 23 27 21 23 33 40 44 65
339 286 262 277 290 309 54 15 35 79 344 167 60 101 29 348 22 34 21 17 12 10 10 14 15 14 13 11 7 8 10 12 15 20 23 21 17 19 21 19 21 31 56 173
351 281 320 296 283 286 80 36 75 49 358 34 63 83 9 337 347 32 28 16 9 2 5 359 2 8 7 6 1 1 2 3 12 23 22 17 18 17 17 18 18 26 23 20
269 225 56 264 333 161 68 12 72 86 35 358 37 347 337 340 354 31 24 15 2 355 354 350 353 350 351 357 350 350 349 349 7 9 15 15 13 15 12 9 16 19 16 11
251 261 189 259 326 183 98 62 88 94 53 32 6 349 345 344 327 14 37 11 343 349 343 344 333 341 335 327 320 327 329 345 349 6 7 2 10 7 358 360 2 7 360 358
12 217 306 93 53 112 230 39 356 28 55 15 355 343 337 334 316 199 23 0 333 330 327 307 304 295 312 312 306 310 316 315 332 338 359 4 360 344 336 345 343 342 332 329
33 36 109 16 118 192 232 314 304 224 264 313 348 342 331 340 358 268 342 327 317 297 291 308 310 303 308 299 298 292 305 320 311 295 310 304 304 301 305 302 289 281 275 280
356 359 77 0 112 296 269 313 327 74 263 274 279 266 301 309 227 290 307 307 307 303 311 315 311 293 284 291 302 303 303 305 309 331 323 310 307 298 292 280 264 282 290 288
91 43 360 356 64 300 300 3 105 231 292 251 276 257 274 284 289 293 300 303 313 310 313 311 310 302 301 294 305 305 309 313 314 303 305 306 304 304 301 294 285 281 281 280
9 35 279 143 226 229 272 146 230 174 243 279 269 284 261 295 296 300 300 313 310 313 314 316 306 311 312 312 309 313 320 321 319 306 302 296 296 297 301 298 290 284 269 261
6 351 65 32 299 297 233 262 207 194 235 275 252 267 272 281 300 302 310 309 311 311 312 309 308 305 307 308 328 318 319 320 316 307 300 296 291 291 293 305 296 288 278 258
257 354 334 274 318 329 352 244 263 325 305 303 292 278 276 297 304 303 303 304 305 303 305 312 318 311 317 323 314 306 314 307 302 303 298 295 295 291 288 282 280 269 264 259
359 212 96 251 222 188 258 282 298 304 289 285 299 300 298 299 299 299 299 296 299 298 323 317 315 315 312 310 308 308 309 304 294 293 297 291 297 288 284 283 290 288 291 288